SCP
0 0 0 0 0 0 0 0 0 0 1 0 0 0 0 0 0 0 0 0 0 0 1 0 0 0 0 0 0 0 0 0 0 0 0 0 0 0 0 0 0 0 1
0 0 0 0 0 0 0 0 0 1 1 1 1 1 1 0 0 0 1 0 0 0 0 0 0 0 0 0 0 0 0 0 0 0 0 0 0 0 0 0 0 0 0
0 0 0 0 0 0 0 0 2 1 1 1 0 0 0 1 0 0 0 0 0 0 0 0 0 0 0 0 0 0 0 0 0 0 0 0 0 0 0 0 0 0 0
0 0 0 0 0 0 1 1 1 1 0 0 0 0 0 0 0 0 0 0 0 0 0 0 0 0 0 0 0 0 0 0 0 0 0 0 0 0 0 0 0 0 1
0 0 0 0 0 0 1 1 1 0 0 0 0 0 0 0 0 0 0 0 0 0 0 0 0 0 0 0 0 0 0 0 0 0 0 0 0 0 0 0 0 0 0
0 0 0 0 0 0 0 0 0 0 0 0 0 0 0 0 0 0 0 0 0 0 0 0 0 0 0 0 0 0 0 0 0 0 0 0 0 0 0 0 0 0 0
0 0 0 0 0 0 0 0 0 0 0 0 0 0 0 0 0 0 0 0 0 0 0 0 0 0 0 0 0 0 0 0 0 0 0 0 0 0 0 0 0 0 0
0 0 0 0 0 0 0 0 0 0 0 0 0 0 0 0 0 0 0 0 0 0 0 0 0 0 0 0 0 0 0 0 0 0 0 0 0 0 0 0 0 0 0
0 0 0 0 0 0 0 0 0 0 0 0 0 0 0 0 0 0 0 0 0 0 0 0 0 0 0 0 0 0 0 0 0 0 0 0 0 0 0 -0 0 0 0
0 0 0 0 0 0 0 0 0 0 0 0 0 0 0 0 0 0 0 0 0 0 0 0 0 0 0 0 0 0 0 0 0 0 0 0 0 0 0 0 -0 0 0
0 0 0 0 0 0 0 0 0 0 0 0 0 0 0 0 0 0 0 0 0 0 0 0 0 0 0 0 0 0 0 0 0 0 0 0 0 0 0 0 0 0 0
0 0 0 0 0 0 0 0 0 0 0 0 0 0 0 0 0 0 0 0 0 0 0 0 0 0 0 0 0 0 0 0 0 0 0 0 0 0 -0 -0 -0 -0 0
0 0 0 0 0 0 0 0 0 0 0 0 0 0 0 0 0 0 0 0 0 0 0 0 0 0 0 0 0 0 0 0 0 0 0 0 0 -0 0 0 -0 -0 -0
0 0 0 0 0 0 0 0 0 0 0 0 0 0 0 0 0 0 0 0 0 0 0 0 0 0 0 0 0 0 0 0 0 -0 -0 -0 -0 -0 0 0 -0 -0 0
0 0 0 0 0 0 0 0 0 0 0 0 0 0 0 0 0 0 0 0 0 0 0 0 0 0 0 0 -0 -0 -0 0 0 0 -0 0 -0 -0 -0 0 -0 -0 -0
0 0 0 0 0 0 0 0 0 0 0 0 0 0 0 0 0 0 0 0 0 0 0 0 0 0 0 -0 -0 0 -0 0 0 -0 0 0 0 0 -0 -0 -0 -0 0
0 0 0 0 0 0 0 0 0 0 0 0 0 0 0 0 0 0 0 0 0 0 0 0 0 0 -0 -0 -0 -0 0 0 0 0 0 0 0 -0 -0 -0 -0 -0 -0
0 0 0 0 0 0 0 0 0 0 0 0 0 0 0 0 0 0 0 0 0 0 0 0 0 0 0 -0 -0 -0 0 0 -0 -0 -0 -0 -0 -0 -0 -0 -0 -0 0
0 0 0 0 0 0 0 0 0 0 0 0 0 0 0 0 0 0 0 0 0 0 0 0 0 0 0 0 0 0 0 0 -0 -0 -0 -0 -0 -0 -0 -0 -0 -0 -0
0 0 0 0 0 0 0 0 0 0 0 0 0 -0 -0 -0 0 0 -0 0 0 0 0 0 0 0 0 -0 0 0 0 0 0 0 -0 -0 -0 -0 -0 -0 -0 0 -0
0 0 0 0 0 0 0 0 0 0 0 -0 -0 -0 -0 0 0 -0 -0 0 -0 -0 0 0 -0 -0 0 0 -0 0 -0 -0 0 0 0 0 -0 -0 -0 -0 -0 0 -0
0 0 0 0 0 0 0 0 0 -0 -0 -0 0 -0 -0 -0 -0 0 0 0 -0 0 0 0 -0 -0 0 -0 -0 0 0 -0 0 -0 0 -0 0 -0 -0 -0 -0 -0 -0
0 0 0 0 0 0 0 0 0 -0 -0 0 -0 -0 0 0 0 0 0 0 -0 0 -0 0 0 0 0 0 -0 0 0 0 0 0 -0 -0 0 -0 -0 -0 -0 -0 -0
0 0 0 0 0 0 0 0 0 -0 0 0 -0 -0 -0 0 0 0 0 0 -0 -0 0 -0 0 -0 -0 -0 0 0 0 0 0 0 -0 -0 0 -0 -0 -0 -0 0 0
0 0 0 0 0 0 0 0 0 0 0 0 0 0 0 -0 0 -0 -0 -0 0 -0 -0 0 0 0 0 -0 -0 0 0 0 0 0 -0 0 0 0 0 0 0 0 0
0 0 0 0 0 0 0 0 0 0 0 0 0 -0 -0 -0 0 0 0 0 0 0 -0 -0 -0 -0 -0 -0 -0 -0 -0 -0 -0 0 0 0 0 0 0 0 0 0 0
Wind_Speed_500mb
43 40 36 32 28 25 23 21 20 22 23 26 30 35 37 42 46 48 52 51 55 56 61 63 68 72 76 77 79 80 74 72 68 71 72 72 72 74 79 70 75 79 77
40 41 38 35 32 28 23 21 22 24 25 27 30 39 44 43 45 47 48 49 52 58 67 74 76 81 75 78 74 71 70 68 58 63 65 69 69 69 70 74 78 70 75
43 42 39 37 30 28 23 23 25 26 30 42 28 25 33 37 44 49 52 63 65 65 70 80 77 79 70 69 64 57 59 63 58 55 58 63 60 61 57 53 68 63 68
40 37 38 39 31 28 21 16 21 22 19 33 23 35 39 39 47 60 58 74 76 69 67 61 57 67 72 77 72 66 61 60 59 58 57 67 70 67 70 73 67 57 66
38 36 38 38 25 16 8 16 15 15 21 23 31 40 45 54 57 60 71 70 65 54 53 57 58 65 69 74 77 67 63 66 66 58 55 64 69 73 69 63 63 71 61
35 33 31 18 11 9 7 3 4 12 21 29 39 49 59 67 68 67 60 56 52 51 46 47 51 58 57 57 60 60 64 67 66 66 66 66 61 55 64 61 61 62 66
22 20 22 14 10 10 6 6 9 13 21 35 45 53 56 61 56 55 51 54 50 49 50 57 63 63 61 64 65 66 61 65 63 67 72 64 68 78 73 62 58 56 56
19 22 19 17 13 9 5 8 14 21 29 41 49 52 54 46 48 47 52 50 51 52 63 65 67 69 65 65 68 69 66 62 59 62 62 70 70 67 67 67 43 51 51
9 11 11 12 9 5 6 12 21 28 35 41 46 46 45 46 46 49 51 48 58 64 67 68 72 67 62 62 64 71 71 63 57 55 55 58 60 54 62 62 69 54 53
15 15 13 10 5 4 11 19 27 34 39 42 43 44 45 45 48 50 52 56 62 63 66 66 64 66 66 66 63 64 64 61 59 54 49 51 52 48 52 57 61 63 62
24 18 13 6 2 9 17 25 32 39 41 44 45 45 45 48 47 49 54 55 57 59 65 64 66 66 68 64 61 60 59 57 55 51 48 47 43 46 46 43 46 47 55
24 17 12 4 7 16 23 30 35 39 42 43 44 43 44 44 47 50 52 55 56 60 62 63 63 62 62 59 58 57 57 57 53 47 43 41 37 42 40 39 41 52 47
18 16 7 3 12 20 27 32 35 38 40 43 43 42 43 43 45 48 49 53 58 58 58 58 57 57 53 51 51 54 59 45 38 33 36 37 33 36 37 36 39 41 46
18 12 2 7 15 22 28 31 35 38 44 41 40 39 39 40 44 49 51 50 54 54 54 53 52 50 48 47 48 45 40 15 15 21 23 27 30 34 34 32 35 35 41
15 7 3 11 18 24 28 32 34 38 39 38 37 35 36 40 48 47 45 48 51 50 49 51 51 48 49 50 43 34 28 22 16 14 11 9 16 25 29 28 28 27 29
11 5 8 15 21 27 30 31 33 34 34 34 33 35 37 52 45 44 42 47 53 58 54 51 52 51 53 49 38 29 24 19 15 12 12 13 18 25 24 24 27 33 32
9 8 12 18 22 25 27 28 29 30 30 31 33 37 43 37 48 57 49 51 57 64 68 58 57 56 53 46 36 33 32 30 27 22 16 11 10 9 14 18 25 28 34
9 12 14 17 19 21 22 23 29 29 35 34 42 37 33 38 42 43 48 55 54 59 66 72 65 61 61 46 39 44 51 55 53 48 42 34 27 20 12 12 16 15 17
14 14 14 15 18 22 21 27 27 28 31 34 36 33 34 36 40 40 47 50 50 54 55 66 69 75 60 57 53 56 61 63 64 64 60 57 54 47 42 42 47 48 48
16 14 14 18 21 21 26 28 28 26 29 33 32 32 34 34 36 39 39 39 39 45 49 55 59 60 68 60 50 54 57 62 61 59 58 54 53 51 46 52 50 53 48
18 15 18 20 18 20 23 26 27 29 28 29 28 30 32 32 34 37 40 40 35 35 37 40 51 51 46 54 62 54 48 52 57 54 52 50 47 46 46 43 39 38 34
18 15 16 17 16 18 19 25 29 29 29 27 27 31 32 31 32 35 39 39 38 35 33 37 35 40 35 42 45 48 48 50 48 38 42 46 45 39 35 34 33 29 23
19 17 16 15 14 16 20 24 28 30 31 32 32 30 31 31 31 35 38 43 41 37 33 35 32 36 40 40 29 35 37 40 35 39 30 29 27 28 29 22 23 26 27
22 17 14 14 13 15 19 24 25 29 30 32 32 30 31 31 29 28 34 39 48 43 39 33 36 34 35 44 49 39 35 33 26 25 29 30 30 29 29 30 30 30 28
23 16 13 13 10 13 19 23 25 28 31 31 30 34 30 31 30 31 36 33 53 58 50 44 32 42 37 38 37 38 37 34 27 25 25 32 33 33 34 33 31 27 24
21 17 13 10 9 12 16 20 24 28 32 30 27 32 30 31 30 28 31 34 41 45 54 49 52 33 30 25 28 31 29 28 26 30 34 32 31 31 30 29 27 27 27
Wind_Direction_500mb
221 219 223 225 226 232 241 253 266 279 289 293 294 301 301 300 301 300 297 294 295 295 295 296 294 293 294 291 285 286 286 284 283 284 281 279 274 270 267 266 256 252 254
220 225 224 225 230 236 245 258 273 280 284 290 285 289 297 299 300 303 304 303 298 293 293 291 290 295 293 291 290 286 286 284 281 278 280 282 281 271 266 260 256 255 250
229 228 231 225 237 241 253 266 259 268 279 284 307 296 296 305 302 299 297 300 294 289 289 290 291 292 294 293 290 286 281 285 276 271 276 281 277 283 276 272 251 250 248
237 240 230 227 234 245 240 249 259 264 287 292 299 298 316 309 299 304 301 292 296 297 298 299 293 290 286 282 284 285 276 275 280 276 267 266 277 289 282 280 279 278 252
244 236 240 237 222 190 194 255 261 281 292 304 305 310 308 305 305 304 303 304 311 305 294 296 294 289 288 287 285 286 280 275 274 271 277 271 272 273 280 266 271 277 271
251 231 224 178 147 157 161 188 293 316 311 310 312 312 310 309 309 310 310 310 303 306 305 303 300 299 298 296 292 286 279 276 273 272 266 266 269 265 269 289 262 257 267
235 209 167 190 184 188 210 270 314 323 325 320 318 315 314 313 315 310 311 304 308 307 306 303 301 298 296 298 298 293 282 274 272 269 268 268 272 263 263 276 284 284 258
194 185 172 188 190 193 245 292 315 332 330 323 319 319 317 316 313 306 302 308 308 306 307 303 306 304 303 302 302 300 296 288 274 270 267 263 264 267 259 263 278 284 286
133 125 146 170 182 209 295 326 335 335 332 328 324 324 321 318 311 310 309 309 309 311 312 313 313 314 310 305 300 295 296 290 281 272 267 265 265 265 261 266 256 265 275
150 154 159 160 175 291 328 337 340 335 333 329 327 324 322 314 312 315 316 320 314 315 318 317 317 315 312 311 308 302 300 294 287 278 272 265 259 261 265 264 257 250 261
171 169 171 175 262 330 333 339 339 336 333 330 329 324 318 318 319 320 324 319 321 319 325 325 322 318 317 317 312 307 304 297 291 283 271 266 257 259 264 259 250 243 248
153 164 176 192 322 334 339 340 340 337 333 331 327 325 322 325 326 333 326 330 331 331 329 328 326 326 322 320 317 314 309 299 290 283 274 267 263 252 260 259 253 245 250
152 155 159 327 331 338 342 342 338 335 334 330 332 332 331 333 336 336 340 348 342 339 339 338 336 333 331 329 327 326 316 296 286 286 271 261 252 250 259 258 255 254 248
152 140 148 331 339 344 344 343 339 335 335 338 339 339 343 351 348 355 352 352 344 346 346 349 348 346 342 344 345 344 349 341 322 308 277 259 248 245 246 261 259 255 253
138 125 18 351 346 348 348 344 339 341 343 348 354 358 2 1 7 358 0 1 354 357 356 359 1 2 3 359 351 353 6 17 14 8 352 308 269 255 246 255 260 262 277
136 91 21 1 357 353 349 345 348 349 6 13 8 11 19 15 9 9 7 8 15 16 13 12 11 13 15 5 2 356 359 358 343 325 303 290 273 268 258 242 245 257 266
115 59 27 11 3 356 352 356 1 18 28 8 1 7 358 19 22 14 16 16 21 22 23 24 25 26 24 18 22 38 37 39 39 37 27 8 346 315 243 227 238 253 262
99 54 31 19 7 5 11 16 32 33 30 4 2 5 7 2 1 1 6 21 23 23 23 29 33 34 34 30 39 59 65 65 61 61 60 62 60 59 104 169 212 232 249
86 64 46 35 34 38 34 33 26 18 15 8 5 6 7 3 1 0 355 9 14 20 21 26 28 34 37 44 50 60 66 68 68 68 64 68 71 73 84 92 94 92 88
91 75 61 59 62 51 40 26 17 13 6 4 5 3 2 2 360 359 357 358 1 3 15 15 21 27 36 39 45 52 59 64 66 66 68 65 67 70 70 69 75 75 71
93 80 75 74 65 53 33 26 18 11 2 0 360 358 0 1 1 360 0 1 5 1 5 12 16 21 29 38 39 44 53 63 62 60 61 62 61 64 65 71 71 70 67
93 92 85 72 62 51 34 18 10 4 357 355 357 357 356 355 5 3 3 5 11 8 12 13 20 18 24 40 37 30 37 41 53 53 49 52 50 55 64 60 65 64 60
110 103 89 86 71 45 26 14 7 3 358 4 4 2 360 3 8 9 12 16 17 17 17 18 17 15 15 23 42 36 23 24 31 43 46 49 48 41 43 44 55 43 44
116 108 97 95 76 41 18 10 5 4 1 4 5 7 5 12 11 17 20 21 25 23 21 24 15 14 12 18 28 22 16 22 19 37 26 31 28 29 39 40 42 45 41
121 115 105 103 67 24 8 6 4 3 360 4 8 7 9 12 14 357 12 21 21 23 25 30 22 18 16 20 33 29 26 31 29 36 36 39 40 38 36 31 31 29 36
130 121 104 86 39 5 0 2 1 4 359 7 13 9 14 16 15 16 356 7 13 21 18 29 34 26 22 30 38 36 24 33 47 42 38 34 31 28 22 21 20 17 18
Wind_Speed_850mb
43 40 36 32 28 25 23 21 20 22 23 26 30 35 37 42 46 48 52 51 55 56 61 63 68 72 76 77 79 80 74 72 68 71 72 72 72 74 79 70 75 79 77
40 41 38 35 32 28 23 21 22 24 25 27 30 39 44 43 45 47 48 49 52 58 67 74 76 81 75 78 74 71 70 68 58 63 65 69 69 69 70 74 78 70 75
43 42 39 37 30 28 23 23 25 26 30 42 28 25 33 37 44 49 52 63 65 65 70 80 77 79 70 69 64 57 59 63 58 55 58 63 60 61 57 53 68 63 68
40 37 38 39 31 28 21 16 21 22 19 33 23 35 39 39 47 60 58 74 76 69 67 61 57 67 72 77 72 66 61 60 59 58 57 67 70 67 70 73 67 57 66
38 36 38 38 25 16 8 16 15 15 21 23 31 40 45 54 57 60 71 70 65 54 53 57 58 65 69 74 77 67 63 66 66 58 55 64 69 73 69 63 63 71 61
35 33 31 18 11 9 7 3 4 12 21 29 39 49 59 67 68 67 60 56 52 51 46 47 51 58 57 57 60 60 64 67 66 66 66 66 61 55 64 61 61 62 66
22 20 22 14 10 10 6 6 9 13 21 35 45 53 56 61 56 55 51 54 50 49 50 57 63 63 61 64 65 66 61 65 63 67 72 64 68 78 73 62 58 56 56
19 22 19 17 13 9 5 8 14 21 29 41 49 52 54 46 48 47 52 50 51 52 63 65 67 69 65 65 68 69 66 62 59 62 62 70 70 67 67 67 43 51 51
9 11 11 12 9 5 6 12 21 28 35 41 46 46 45 46 46 49 51 48 58 64 67 68 72 67 62 62 64 71 71 63 57 55 55 58 60 54 62 62 69 54 53
15 15 13 10 5 4 11 19 27 34 39 42 43 44 45 45 48 50 52 56 62 63 66 66 64 66 66 66 63 64 64 61 59 54 49 51 52 48 52 57 61 63 62
24 18 13 6 2 9 17 25 32 39 41 44 45 45 45 48 47 49 54 55 57 59 65 64 66 66 68 64 61 60 59 57 55 51 48 47 43 46 46 43 46 47 55
24 17 12 4 7 16 23 30 35 39 42 43 44 43 44 44 47 50 52 55 56 60 62 63 63 62 62 59 58 57 57 57 53 47 43 41 37 42 40 39 41 52 47
18 16 7 3 12 20 27 32 35 38 40 43 43 42 43 43 45 48 49 53 58 58 58 58 57 57 53 51 51 54 59 45 38 33 36 37 33 36 37 36 39 41 46
18 12 2 7 15 22 28 31 35 38 44 41 40 39 39 40 44 49 51 50 54 54 54 53 52 50 48 47 48 45 40 15 15 21 23 27 30 34 34 32 35 35 41
15 7 3 11 18 24 28 32 34 38 39 38 37 35 36 40 48 47 45 48 51 50 49 51 51 48 49 50 43 34 28 22 16 14 11 9 16 25 29 28 28 27 29
11 5 8 15 21 27 30 31 33 34 34 34 33 35 37 52 45 44 42 47 53 58 54 51 52 51 53 49 38 29 24 19 15 12 12 13 18 25 24 24 27 33 32
9 8 12 18 22 25 27 28 29 30 30 31 33 37 43 37 48 57 49 51 57 64 68 58 57 56 53 46 36 33 32 30 27 22 16 11 10 9 14 18 25 28 34
9 12 14 17 19 21 22 23 29 29 35 34 42 37 33 38 42 43 48 55 54 59 66 72 65 61 61 46 39 44 51 55 53 48 42 34 27 20 12 12 16 15 17
14 14 14 15 18 22 21 27 27 28 31 34 36 33 34 36 40 40 47 50 50 54 55 66 69 75 60 57 53 56 61 63 64 64 60 57 54 47 42 42 47 48 48
16 14 14 18 21 21 26 28 28 26 29 33 32 32 34 34 36 39 39 39 39 45 49 55 59 60 68 60 50 54 57 62 61 59 58 54 53 51 46 52 50 53 48
18 15 18 20 18 20 23 26 27 29 28 29 28 30 32 32 34 37 40 40 35 35 37 40 51 51 46 54 62 54 48 52 57 54 52 50 47 46 46 43 39 38 34
18 15 16 17 16 18 19 25 29 29 29 27 27 31 32 31 32 35 39 39 38 35 33 37 35 40 35 42 45 48 48 50 48 38 42 46 45 39 35 34 33 29 23
19 17 16 15 14 16 20 24 28 30 31 32 32 30 31 31 31 35 38 43 41 37 33 35 32 36 40 40 29 35 37 40 35 39 30 29 27 28 29 22 23 26 27
22 17 14 14 13 15 19 24 25 29 30 32 32 30 31 31 29 28 34 39 48 43 39 33 36 34 35 44 49 39 35 33 26 25 29 30 30 29 29 30 30 30 28
23 16 13 13 10 13 19 23 25 28 31 31 30 34 30 31 30 31 36 33 53 58 50 44 32 42 37 38 37 38 37 34 27 25 25 32 33 33 34 33 31 27 24
21 17 13 10 9 12 16 20 24 28 32 30 27 32 30 31 30 28 31 34 41 45 54 49 52 33 30 25 28 31 29 28 26 30 34 32 31 31 30 29 27 27 27
Wind_Direction_850mb
221 219 223 225 226 232 241 253 266 279 289 293 294 301 301 300 301 300 297 294 295 295 295 296 294 293 294 291 285 286 286 284 283 284 281 279 274 270 267 266 256 252 254
220 225 224 225 230 236 245 258 273 280 284 290 285 289 297 299 300 303 304 303 298 293 293 291 290 295 293 291 290 286 286 284 281 278 280 282 281 271 266 260 256 255 250
229 228 231 225 237 241 253 266 259 268 279 284 307 296 296 305 302 299 297 300 294 289 289 290 291 292 294 293 290 286 281 285 276 271 276 281 277 283 276 272 251 250 248
237 240 230 227 234 245 240 249 259 264 287 292 299 298 316 309 299 304 301 292 296 297 298 299 293 290 286 282 284 285 276 275 280 276 267 266 277 289 282 280 279 278 252
244 236 240 237 222 190 194 255 261 281 292 304 305 310 308 305 305 304 303 304 311 305 294 296 294 289 288 287 285 286 280 275 274 271 277 271 272 273 280 266 271 277 271
251 231 224 178 147 157 161 188 293 316 311 310 312 312 310 309 309 310 310 310 303 306 305 303 300 299 298 296 292 286 279 276 273 272 266 266 269 265 269 289 262 257 267
235 209 167 190 184 188 210 270 314 323 325 320 318 315 314 313 315 310 311 304 308 307 306 303 301 298 296 298 298 293 282 274 272 269 268 268 272 263 263 276 284 284 258
194 185 172 188 190 193 245 292 315 332 330 323 319 319 317 316 313 306 302 308 308 306 307 303 306 304 303 302 302 300 296 288 274 270 267 263 264 267 259 263 278 284 286
133 125 146 170 182 209 295 326 335 335 332 328 324 324 321 318 311 310 309 309 309 311 312 313 313 314 310 305 300 295 296 290 281 272 267 265 265 265 261 266 256 265 275
150 154 159 160 175 291 328 337 340 335 333 329 327 324 322 314 312 315 316 320 314 315 318 317 317 315 312 311 308 302 300 294 287 278 272 265 259 261 265 264 257 250 261
171 169 171 175 262 330 333 339 339 336 333 330 329 324 318 318 319 320 324 319 321 319 325 325 322 318 317 317 312 307 304 297 291 283 271 266 257 259 264 259 250 243 248
153 164 176 192 322 334 339 340 340 337 333 331 327 325 322 325 326 333 326 330 331 331 329 328 326 326 322 320 317 314 309 299 290 283 274 267 263 252 260 259 253 245 250
152 155 159 327 331 338 342 342 338 335 334 330 332 332 331 333 336 336 340 348 342 339 339 338 336 333 331 329 327 326 316 296 286 286 271 261 252 250 259 258 255 254 248
152 140 148 331 339 344 344 343 339 335 335 338 339 339 343 351 348 355 352 352 344 346 346 349 348 346 342 344 345 344 349 341 322 308 277 259 248 245 246 261 259 255 253
138 125 18 351 346 348 348 344 339 341 343 348 354 358 2 1 7 358 0 1 354 357 356 359 1 2 3 359 351 353 6 17 14 8 352 308 269 255 246 255 260 262 277
136 91 21 1 357 353 349 345 348 349 6 13 8 11 19 15 9 9 7 8 15 16 13 12 11 13 15 5 2 356 359 358 343 325 303 290 273 268 258 242 245 257 266
115 59 27 11 3 356 352 356 1 18 28 8 1 7 358 19 22 14 16 16 21 22 23 24 25 26 24 18 22 38 37 39 39 37 27 8 346 315 243 227 238 253 262
99 54 31 19 7 5 11 16 32 33 30 4 2 5 7 2 1 1 6 21 23 23 23 29 33 34 34 30 39 59 65 65 61 61 60 62 60 59 104 169 212 232 249
86 64 46 35 34 38 34 33 26 18 15 8 5 6 7 3 1 0 355 9 14 20 21 26 28 34 37 44 50 60 66 68 68 68 64 68 71 73 84 92 94 92 88
91 75 61 59 62 51 40 26 17 13 6 4 5 3 2 2 360 359 357 358 1 3 15 15 21 27 36 39 45 52 59 64 66 66 68 65 67 70 70 69 75 75 71
93 80 75 74 65 53 33 26 18 11 2 0 360 358 0 1 1 360 0 1 5 1 5 12 16 21 29 38 39 44 53 63 62 60 61 62 61 64 65 71 71 70 67
93 92 85 72 62 51 34 18 10 4 357 355 357 357 356 355 5 3 3 5 11 8 12 13 20 18 24 40 37 30 37 41 53 53 49 52 50 55 64 60 65 64 60
110 103 89 86 71 45 26 14 7 3 358 4 4 2 360 3 8 9 12 16 17 17 17 18 17 15 15 23 42 36 23 24 31 43 46 49 48 41 43 44 55 43 44
116 108 97 95 76 41 18 10 5 4 1 4 5 7 5 12 11 17 20 21 25 23 21 24 15 14 12 18 28 22 16 22 19 37 26 31 28 29 39 40 42 45 41
121 115 105 103 67 24 8 6 4 3 360 4 8 7 9 12 14 357 12 21 21 23 25 30 22 18 16 20 33 29 26 31 29 36 36 39 40 38 36 31 31 29 36
130 121 104 86 39 5 0 2 1 4 359 7 13 9 14 16 15 16 356 7 13 21 18 29 34 26 22 30 38 36 24 33 47 42 38 34 31 28 22 21 20 17 18